TimeCDT,TemperatureF,Dew PointF,Humidity,Sea Level PressureIn,VisibilityMPH,Wind Direction,Wind SpeedMPH,Gust SpeedMPH,PrecipitationIn,Events,Conditions,WindDirDegrees,DateUTC
12:15 AM,33.6,26.4,75,30.22,10.0,ESE,5.8,-,N/A,,Clear,120,2012-10-30 05:15:00
12:35 AM,32.7,25.9,76,30.23,10.0,ESE,5.8,-,N/A,,Clear,120,2012-10-30 05:35:00
12:55 AM,31.8,25.3,77,30.23,10.0,ESE,6.9,-,N/A,,Clear,120,2012-10-30 05:55:00
1:15 AM,32.2,25.5,76,30.23,10.0,ESE,8.1,-,N/A,,Clear,110,2012-10-30 06:15:00
1:35 AM,32.9,25.7,75,30.23,10.0,ESE,6.9,-,N/A,,Clear,110,2012-10-30 06:35:00
1:55 AM,32.4,26.1,78,30.23,10.0,East,6.9,-,N/A,,Clear,100,2012-10-30 06:55:00
2:15 AM,31.5,25.7,79,30.23,10.0,ESE,4.6,-,N/A,,Clear,110,2012-10-30 07:15:00
2:35 AM,31.3,25.9,80,30.23,10.0,ESE,5.8,-,N/A,,Clear,110,2012-10-30 07:35:00
2:55 AM,31.6,26.6,82,30.24,10.0,ESE,5.8,-,N/A,,Clear,110,2012-10-30 07:55:00
3:15 AM,32.0,27.1,82,30.24,10.0,East,5.8,-,N/A,,Clear,100,2012-10-30 08:15:00
3:35 AM,32.2,27.5,83,30.23,10.0,East,8.1,-,N/A,,Clear,100,2012-10-30 08:35:00
3:55 AM,32.4,27.7,83,30.23,10.0,East,8.1,-,N/A,,Clear,100,2012-10-30 08:55:00
4:15 AM,32.2,27.7,83,30.22,10.0,ESE,9.2,-,N/A,,Clear,110,2012-10-30 09:15:00
4:35 AM,32.2,27.5,83,30.22,10.0,ESE,6.9,-,N/A,,Clear,110,2012-10-30 09:35:00
5:15 AM,31.6,27.7,85,30.22,10.0,ESE,5.8,-,N/A,,Clear,110,2012-10-30 10:15:00
5:35 AM,31.5,27.7,86,30.22,10.0,ESE,6.9,-,N/A,,Clear,110,2012-10-30 10:35:00
5:55 AM,31.3,27.7,87,30.22,10.0,East,4.6,-,N/A,,Clear,100,2012-10-30 10:55:00
6:15 AM,30.9,27.5,87,30.22,10.0,ESE,4.6,-,N/A,,Clear,110,2012-10-30 11:15:00
6:35 AM,30.4,27.5,89,30.23,10.0,ESE,3.5,-,N/A,,Clear,110,2012-10-30 11:35:00
6:55 AM,30.0,27.3,90,30.23,10.0,East,3.5,-,N/A,,Clear,100,2012-10-30 11:55:00
7:35 AM,29.3,27.0,91,30.23,10.0,ESE,6.9,-,N/A,,Clear,110,2012-10-30 12:35:00
7:55 AM,29.7,27.1,90,30.23,7.0,East,3.5,-,N/A,,Clear,100,2012-10-30 12:55:00
8:15 AM,29.1,26.8,91,30.22,7.0,East,5.8,-,N/A,,Clear,100,2012-10-30 13:15:00
8:35 AM,30.2,27.5,90,30.22,7.0,East,5.8,-,N/A,,Clear,100,2012-10-30 13:35:00
8:55 AM,32.5,29.7,89,30.22,7.0,ESE,6.9,-,N/A,,Clear,120,2012-10-30 13:55:00
9:15 AM,34.2,30.7,87,30.22,10.0,ESE,10.4,-,N/A,,Clear,110,2012-10-30 14:15:00
9:35 AM,34.0,30.9,89,30.22,7.0,SE,6.9,-,N/A,,Mostly Cloudy,130,2012-10-30 14:35:00
9:55 AM,34.3,31.3,89,30.21,10.0,SE,8.1,-,N/A,,Scattered Clouds,130,2012-10-30 14:55:00
10:15 AM,35.1,31.1,85,30.21,7.0,ESE,9.2,-,N/A,,Clear,120,2012-10-30 15:15:00
10:35 AM,35.1,31.1,85,30.21,7.0,ESE,10.4,-,N/A,,Clear,120,2012-10-30 15:35:00
10:55 AM,35.8,31.3,84,30.22,10.0,SE,6.9,-,N/A,,Scattered Clouds,130,2012-10-30 15:55:00
11:15 AM,36.7,31.5,81,30.22,7.0,SE,8.1,-,N/A,,Scattered Clouds,130,2012-10-30 16:15:00
11:35 AM,37.4,31.3,79,30.22,10.0,SE,8.1,-,N/A,,Mostly Cloudy,130,2012-10-30 16:35:00
11:55 AM,38.1,31.6,77,30.21,7.0,SE,6.9,-,N/A,,Mostly Cloudy,130,2012-10-30 16:55:00
12:15 PM,38.8,31.6,75,30.21,10.0,ESE,6.9,-,N/A,,Scattered Clouds,110,2012-10-30 17:15:00
12:35 PM,39.4,31.3,73,30.20,7.0,ESE,10.4,-,N/A,,Mostly Cloudy,110,2012-10-30 17:35:00
12:55 PM,39.6,30.7,71,30.19,7.0,ESE,10.4,-,N/A,,Overcast,120,2012-10-30 17:55:00
1:15 PM,39.9,30.9,70,30.19,7.0,SE,8.1,-,N/A,,Overcast,130,2012-10-30 18:15:00
1:35 PM,40.1,30.7,69,30.18,7.0,SE,5.8,-,N/A,,Overcast,130,2012-10-30 18:35:00
1:55 PM,40.5,30.7,68,30.18,10.0,SE,5.8,-,N/A,,Overcast,130,2012-10-30 18:55:00
2:15 PM,41.0,30.0,65,30.17,10.0,ESE,6.9,-,N/A,,Overcast,120,2012-10-30 19:15:00
2:35 PM,41.4,30.0,64,30.16,10.0,SE,5.8,-,N/A,,Overcast,130,2012-10-30 19:35:00
2:55 PM,41.7,30.2,64,30.15,10.0,ESE,5.8,-,N/A,,Overcast,120,2012-10-30 19:55:00
3:15 PM,42.1,30.6,64,30.15,10.0,ESE,6.9,-,N/A,,Overcast,110,2012-10-30 20:15:00
3:35 PM,41.9,30.6,64,30.15,10.0,ESE,6.9,-,N/A,,Overcast,120,2012-10-30 20:35:00
3:55 PM,42.1,30.7,64,30.15,10.0,ENE,3.5,-,N/A,,Overcast,70,2012-10-30 20:55:00
4:15 PM,41.9,31.3,66,30.15,10.0,East,5.8,-,N/A,,Overcast,90,2012-10-30 21:15:00
4:35 PM,41.5,31.3,67,30.15,7.0,East,5.8,-,N/A,,Overcast,80,2012-10-30 21:35:00
4:55 PM,41.7,31.6,67,30.15,10.0,East,4.6,-,N/A,,Overcast,90,2012-10-30 21:55:00
5:15 PM,41.4,31.1,67,30.14,10.0,East,4.6,-,N/A,,Mostly Cloudy,80,2012-10-30 22:15:00
5:35 PM,40.8,31.3,69,30.14,10.0,Calm,Calm,-,N/A,,Clear,0,2012-10-30 22:35:00
5:55 PM,40.1,31.3,71,30.14,7.0,Calm,Calm,-,N/A,,Clear,0,2012-10-30 22:55:00
6:15 PM,39.6,30.9,71,30.14,7.0,Calm,Calm,-,N/A,,Clear,0,2012-10-30 23:15:00
6:35 PM,37.9,30.9,76,30.13,7.0,Calm,Calm,-,N/A,,Clear,0,2012-10-30 23:35:00
6:55 PM,35.4,30.2,81,30.13,10.0,Calm,Calm,-,N/A,,Clear,0,2012-10-30 23:55:00
7:15 PM,31.8,28.8,88,30.13,10.0,Calm,Calm,-,N/A,,Clear,0,2012-10-31 00:15:00
7:55 PM,31.5,28.4,88,30.12,10.0,Calm,Calm,-,N/A,,Clear,0,2012-10-31 00:55:00
8:35 PM,30.2,28.2,92,30.11,10.0,Calm,Calm,-,N/A,,Clear,0,2012-10-31 01:35:00
8:55 PM,28.4,26.2,92,30.11,7.0,Calm,Calm,-,N/A,,Clear,0,2012-10-31 01:55:00
9:15 PM,28.0,26.6,94,30.10,10.0,Calm,Calm,-,N/A,,Clear,0,2012-10-31 02:15:00
9:55 PM,26.2,25.0,95,30.09,7.0,Calm,Calm,-,N/A,,Clear,0,2012-10-31 02:55:00
10:35 PM,25.9,24.6,95,30.09,7.0,Calm,Calm,-,N/A,,Clear,0,2012-10-31 03:35:00
11:15 PM,24.1,22.1,92,30.11,7.0,Calm,Calm,-,N/A,,Clear,0,2012-10-31 04:15:00
11:35 PM,25.0,23.5,94,30.11,7.0,Calm,Calm,-,N/A,,Clear,0,2012-10-31 04:35:00
11:55 PM,26.2,24.1,92,30.10,7.0,Calm,Calm,-,N/A,,Clear,0,2012-10-31 04:55:00